Temperature
26 26 25 25 23 22 24 25 25 25 24 24 24 23 23 22 21 19 19 19 20 20 19 19 19 19 19 19 19 19 19 18 18 18 18 18 18 18 18 18 18 18 18 18 18 18 18 18 18
27 26 26 25 23 22 24 25 25 25 25 24 24 23 22 20 19 19 19 20 20 20 20 19 19 19 19 19 19 19 19 18 18 18 18 18 18 18 18 18 18 18 18 18 18 18 18 17 17
27 27 26 23 23 23 25 26 26 26 26 25 24 23 22 21 19 19 20 20 20 20 20 19 19 19 19 19 19 19 19 18 18 18 18 18 18 18 18 18 18 18 18 18 18 18 18 17 17
28 27 26 24 25 26 26 26 26 26 26 25 24 23 22 21 21 20 20 20 20 20 20 20 19 19 19 19 19 19 19 19 18 18 18 18 18 18 18 18 18 18 18 18 18 18 18 17 17
28 27 24 24 25 27 27 27 27 26 25 24 23 22 21 21 21 21 20 21 21 20 20 20 20 19 19 19 19 19 19 19 19 18 18 18 18 18 18 18 18 18 18 18 18 18 18 17 17
28 25 23 24 26 27 27 27 26 25 24 23 23 22 21 21 21 21 21 21 21 20 20 20 19 19 19 19 19 19 19 18 18 18 18 18 18 18 18 18 18 18 18 18 18 18 18 17 17
27 24 24 25 26 27 27 27 26 25 24 24 23 22 21 20 21 21 21 21 21 20 20 20 19 19 19 19 19 19 19 19 18 18 18 18 18 18 18 18 18 18 18 18 18 18 18 17 17
30 24 25 25 26 27 28 28 26 25 25 24 24 22 21 21 21 21 21 20 20 20 20 20 20 19 19 19 19 19 19 18 18 18 18 18 18 18 18 18 18 18 18 18 18 18 18 18 17
30 25 25 26 27 27 28 27 27 26 25 25 24 23 22 21 21 21 20 20 20 20 20 20 20 19 19 19 19 19 19 19 18 18 18 18 18 18 18 18 18 18 18 18 18 18 18 18 17
29 25 26 28 28 28 28 28 27 26 25 24 23 23 22 22 21 21 20 20 20 20 20 20 20 19 19 19 19 19 19 19 18 18 18 18 18 18 18 18 18 18 18 18 18 18 18 18 18
29 27 28 29 30 29 28 28 27 25 24 24 23 22 22 22 22 21 21 21 21 20 20 20 20 19 19 19 19 19 19 18 18 18 18 18 18 18 18 18 18 18 18 18 18 18 18 18 18
29 29 30 30 30 29 28 28 27 26 25 25 24 23 23 22 22 22 21 21 21 20 20 20 19 19 19 19 19 19 19 18 18 18 18 18 18 18 18 18 18 18 18 18 18 18 18 18 18
30 30 30 30 30 30 29 28 27 26 25 25 24 24 23 23 23 22 22 21 21 20 20 20 20 19 19 19 19 19 18 18 18 18 18 18 18 18 18 18 18 18 18 18 18 18 18 18 18
30 30 30 30 29 29 28 27 26 25 25 24 24 24 23 23 23 22 22 21 21 21 21 20 20 20 19 19 19 19 19 18 18 18 18 18 18 18 18 18 18 18 18 18 18 18 18 18 18
30 28 29 29 29 29 28 26 25 25 25 24 24 24 24 24 23 23 22 22 22 21 21 20 20 20 19 19 19 19 19 19 19 18 18 18 18 18 18 18 18 18 18 18 18 18 17 17 17
29 27 27 28 29 28 27 25 25 26 25 24 24 24 24 24 23 23 23 22 22 21 21 20 20 20 20 19 19 19 19 19 19 19 18 18 18 18 18 18 18 18 18 18 18 18 18 17 17
27 27 27 28 29 28 27 25 25 25 25 24 24 24 23 23 23 23 23 23 22 22 21 21 20 20 20 19 19 19 19 19 19 18 18 18 18 18 18 18 18 18 18 18 18 17 18 18 18
26 27 28 28 29 28 27 25 25 25 25 24 24 24 23 23 23 23 23 23 22 22 21 21 21 20 20 19 19 19 19 19 18 18 18 18 18 18 18 18 18 18 18 18 18 18 17 18 18
28 28 28 28 29 28 27 26 26 26 25 25 24 24 24 24 24 23 23 23 22 22 21 21 21 20 20 19 19 19 19 18 18 18 18 18 18 18 18 18 18 18 18 18 18 17 17 17 17
29 28 28 28 29 28 26 26 26 25 25 25 24 24 24 24 23 23 23 23 22 22 22 21 21 20 20 20 19 19 19 18 18 18 18 18 18 18 18 18 18 18 18 18 17 17 17 17 17
28 28 28 28 28 27 26 25 25 25 26 25 25 25 24 24 24 23 23 23 22 22 22 21 21 20 20 20 19 19 18 18 18 18 18 18 18 18 18 18 18 18 18 18 17 17 17 17 17
28 29 29 29 26 25 26 24 24 24 24 24 25 24 24 24 24 24 23 23 23 22 22 21 21 20 20 20 19 19 19 19 19 18 18 18 18 18 18 18 18 18 18 18 18 18 17 17 17
29 30 29 28 26 25 25 24 23 23 23 24 24 24 24 24 24 24 24 23 23 22 22 21 21 20 20 20 19 19 19 19 19 18 18 18 18 18 18 18 18 18 18 18 18 18 17 17 17
30 28 26 23 22 24 25 24 23 22 23 24 24 25 25 25 24 24 24 23 23 22 22 21 20 20 20 20 19 19 19 19 19 18 18 18 18 18 18 18 18 18 18 18 18 17 17 17 17
28 24 23 24 22 23 24 24 23 24 24 25 24 25 25 25 24 24 24 23 23 22 22 21 20 20 20 19 19 19 19 19 19 19 18 18 18 18 18 18 18 18 18 18 17 17 17 17 17
27 24 23 24 23 23 24 24 24 25 25 26 26 25 25 25 24 24 24 24 23 22 22 21 21 20 20 20 19 19 19 19 19 19 19 18 18 18 18 18 18 18 18 18 17 17 17 17 17
28 25 22 22 23 23 23 24 24 25 24 25 25 25 24 25 25 24 24 24 23 23 22 22 21 21 20 20 20 19 19 19 19 19 18 18 18 18 18 18 18 18 18 17 17 17 17 17 17
28 26 21 22 22 23 23 24 23 24 24 24 24 24 24 24 25 24 24 24 23 23 22 22 21 21 20 20 19 19 19 19 19 19 18 18 18 18 18 18 18 18 18 17 17 17 17 17 16
28 27 22 20 20 21 22 22 23 23 23 23 23 24 25 24 25 24 24 24 23 23 22 22 21 21 20 20 19 19 19 19 19 18 18 18 18 18 18 18 18 17 17 17 17 17 17 16 16
27 26 22 22 22 20 21 22 24 23 23 23 23 24 25 25 24 24 24 24 23 23 22 22 21 20 20 20 19 19 19 19 19 18 18 18 18 18 18 18 18 17 17 17 17 17 16 16 16
Wind_Speed
8 7 4 2 5 6 9 9 11 12 8 11 13 12 11 8 6 9 5 12 13 9 12 14 15 15 15 15 16 16 16 16 16 16 16 16 16 17 17 17 17 17 18 18 18 17 17 17 18
5 6 2 3 6 6 7 9 14 14 13 16 15 15 11 9 10 12 7 12 13 12 12 14 15 15 15 15 15 15 15 15 16 16 16 16 16 16 16 16 17 17 17 17 17 16 16 16 16
3 3 3 4 5 7 8 11 14 14 13 12 9 9 7 9 12 9 11 15 12 11 13 15 16 15 15 15 14 15 15 15 15 15 15 15 15 16 15 15 16 16 15 16 15 15 14 14 14
2 2 4 6 6 6 11 12 15 14 11 10 11 9 6 8 8 13 17 16 14 10 13 15 16 15 15 14 14 14 14 14 14 14 14 14 15 15 15 15 15 14 14 14 14 13 13 12 12
2 5 6 5 5 7 12 14 13 11 7 11 13 11 7 7 19 21 18 16 15 10 11 14 15 15 15 14 14 14 14 14 14 14 14 14 14 14 14 14 14 13 13 12 12 12 11 11 11
4 5 5 5 6 7 9 13 15 15 16 15 14 11 6 13 20 19 17 14 13 12 11 14 15 15 14 14 14 13 13 13 13 13 13 13 13 13 13 13 13 12 11 11 10 10 10 9 9
4 5 5 6 6 7 8 9 13 14 13 10 11 8 7 12 16 18 16 14 12 12 11 10 13 13 13 13 13 13 12 12 12 13 13 13 13 12 12 12 12 11 10 10 9 9 8 7 7
5 5 5 5 7 6 7 7 11 15 10 13 10 9 9 12 16 17 15 12 11 10 9 9 11 11 11 11 12 12 12 12 12 12 12 12 12 11 11 10 10 10 9 9 8 7 6 5 5
5 6 3 5 7 7 8 11 8 8 12 7 5 9 15 19 19 17 14 10 9 10 8 8 9 10 10 10 10 11 11 10 10 10 11 10 8 9 9 9 9 9 9 8 7 5 4 3 3
6 6 7 6 8 10 11 12 9 8 11 10 12 14 18 18 19 18 16 14 12 11 9 8 8 9 10 9 9 8 8 8 8 8 8 7 7 7 8 8 8 8 7 6 5 4 3 2 1
6 7 6 6 9 12 11 9 7 12 10 15 20 19 18 18 16 16 15 14 13 12 11 9 8 9 9 7 8 6 6 7 7 7 8 7 6 6 6 6 6 5 5 3 2 2 2 2 2
4 4 7 8 10 11 10 9 8 8 11 16 19 20 17 17 16 15 14 13 12 12 11 10 9 8 8 8 7 7 5 5 5 6 8 7 4 4 5 4 5 4 4 3 3 3 3 3 4
4 3 6 8 11 10 12 10 10 9 13 15 17 17 16 16 14 12 12 12 12 12 11 11 9 8 8 7 6 6 5 5 6 6 8 8 5 4 4 4 4 4 5 4 3 3 3 2 3
2 3 5 8 10 7 12 9 9 9 15 15 15 14 15 15 14 12 12 12 12 11 11 10 10 9 8 6 5 5 7 7 6 6 7 8 8 6 5 4 4 4 5 5 4 3 2 2 1
4 5 4 3 6 5 10 7 8 14 16 14 14 14 15 13 14 15 15 14 13 12 11 10 10 8 8 7 6 6 7 7 5 6 8 8 8 8 6 4 3 4 5 5 3 2 1 1 1
4 5 1 3 3 4 9 7 8 14 15 13 13 13 13 12 13 14 14 13 13 12 11 10 10 9 7 6 5 5 6 7 7 8 8 8 8 8 6 3 3 5 5 4 2 2 2 1 1
4 1 2 4 3 4 5 6 9 12 15 13 12 12 11 10 10 11 14 14 14 13 11 10 9 9 7 6 4 5 5 5 6 7 7 7 8 8 6 4 4 5 3 2 2 2 2 1 1
3 2 3 4 4 5 5 7 12 12 14 14 13 12 12 13 12 12 12 13 13 12 11 10 8 8 7 5 3 3 3 3 4 6 7 8 8 8 6 4 4 4 2 2 2 2 2 2 2
5 3 4 4 4 4 5 9 12 12 11 12 11 11 11 12 10 11 12 12 12 10 10 10 9 8 6 4 4 3 3 2 2 4 7 8 8 8 6 3 3 3 3 3 3 2 2 1 1
3 3 3 1 2 4 4 4 8 11 14 14 14 14 14 12 10 11 10 11 12 12 10 10 9 9 7 5 4 3 3 3 3 2 4 6 7 7 6 4 3 3 2 2 3 3 2 1 2
3 4 4 2 2 4 6 2 3 5 7 9 12 13 14 16 15 14 12 12 12 12 12 11 9 8 8 6 4 3 2 1 1 1 2 3 6 6 5 5 4 3 3 3 3 3 4 3 2
4 5 3 4 3 2 3 2 5 4 5 8 10 12 14 14 14 13 13 13 14 13 11 10 9 8 8 7 6 6 4 3 3 3 3 3 4 5 6 5 5 3 3 3 3 3 3 3 2
5 4 2 3 3 2 2 4 5 1 5 9 10 13 13 14 16 15 14 14 13 12 11 10 9 8 8 7 8 6 4 4 3 2 3 3 2 3 4 5 4 3 3 3 3 3 3 3 3
2 3 6 6 5 1 3 4 5 5 9 9 9 11 12 12 13 12 11 10 9 10 9 9 9 8 8 8 7 7 7 6 5 4 4 3 2 2 3 4 4 3 3 3 4 3 3 4 3
4 6 5 6 5 5 4 2 7 8 9 10 11 11 11 12 12 12 12 11 10 11 11 10 10 8 8 8 8 8 8 7 7 5 4 4 2 2 3 3 3 3 3 3 3 3 3 4 4
4 10 8 5 4 5 4 2 6 6 5 5 7 9 10 12 11 13 14 14 13 12 11 11 10 9 8 8 8 7 7 6 5 5 4 4 3 3 3 3 3 3 3 3 2 2 3 3 4
4 5 10 8 3 1 4 5 6 3 3 3 6 9 10 12 12 12 12 12 12 12 11 11 11 9 8 8 8 7 7 6 6 5 4 4 3 3 3 3 3 2 2 2 2 2 3 2 3
7 8 7 6 4 2 5 3 3 3 3 3 5 9 9 10 11 11 11 12 11 11 10 10 10 10 8 8 8 8 7 6 6 5 5 4 3 3 3 3 2 2 1 1 1 1 1 1 1
2 4 6 5 6 7 3 6 5 7 7 7 6 7 11 12 12 11 11 11 11 10 10 10 10 8 8 8 7 7 6 6 5 5 5 4 3 3 3 3 2 2 1 0 1 1 1 1 1
7 7 8 5 4 6 5 6 5 7 9 9 7 6 8 9 9 10 10 10 10 10 10 10 9 9 8 8 7 7 6 6 5 5 4 4 4 3 3 3 3 2 1 0 1 1 0 1 1
Wind_Direction
173 171 166 137 61 62 88 92 96 84 68 69 77 83 82 67 99 128 142 134 132 129 124 118 114 111 108 106 104 103 101 100 101 102 103 103 103 104 105 105 105 106 106 106 105 105 105 107 108
173 172 155 64 83 86 88 100 94 98 116 106 87 85 79 74 91 117 127 136 133 130 127 123 119 116 113 111 109 107 105 104 104 104 105 106 106 107 108 108 108 109 110 109 108 108 108 108 108
184 185 100 69 92 119 115 108 106 106 107 100 95 76 76 109 118 129 141 140 131 127 129 129 124 120 117 115 114 111 108 107 107 107 107 109 109 109 110 111 112 112 113 112 111 111 111 111 110
149 75 53 78 102 111 120 122 115 108 88 84 95 82 77 115 124 134 139 137 130 129 132 132 128 125 122 120 118 114 111 110 110 110 110 111 111 111 112 113 114 115 114 113 114 113 112 112 110
87 73 62 73 91 102 112 120 114 102 89 95 99 99 85 96 123 134 139 137 134 134 134 134 131 129 126 124 122 119 117 115 114 113 113 114 114 114 115 116 117 117 116 117 118 117 115 113 110
63 68 73 88 91 97 113 117 106 103 111 109 108 107 104 128 132 140 140 139 138 138 138 138 136 133 131 129 127 125 123 121 119 118 118 118 119 118 119 120 121 122 123 124 123 121 118 116 113
107 102 121 124 111 113 125 124 122 130 130 129 126 107 120 140 141 141 139 139 138 139 139 138 138 138 136 134 132 131 129 126 125 125 124 124 123 123 124 125 126 128 130 131 131 127 124 120 114
139 110 101 115 124 132 138 120 133 136 127 134 131 127 148 154 141 137 136 136 138 143 146 144 142 140 139 138 139 137 135 134 133 133 133 132 131 131 130 130 132 136 139 140 138 136 132 127 123
111 92 131 158 144 144 126 106 110 113 125 143 110 130 145 143 136 133 133 134 145 151 155 152 151 149 147 147 148 145 142 142 140 141 141 137 134 135 137 141 142 144 148 149 150 149 145 137 136
118 135 184 182 154 138 127 122 121 107 109 105 106 118 135 138 141 143 148 152 158 163 167 166 162 162 161 157 149 152 150 148 145 147 148 149 153 155 153 156 154 153 154 158 167 177 179 180 170
131 153 160 142 139 133 132 129 110 120 126 141 141 143 146 145 149 153 158 161 165 166 168 171 168 168 165 155 157 164 163 159 161 163 165 162 163 166 163 163 164 163 166 175 194 222 223 219 235
108 133 134 138 131 128 134 130 117 130 154 155 149 150 151 154 159 163 163 164 161 161 167 169 166 163 163 161 166 167 164 165 171 175 173 166 165 171 171 171 174 178 185 192 214 227 233 241 234
99 108 112 128 123 126 124 126 121 128 141 148 148 152 157 162 164 164 161 159 157 160 166 167 164 161 162 162 167 163 166 170 174 174 173 171 167 175 181 185 188 200 202 201 210 218 225 211 225
158 110 122 127 117 123 121 117 108 141 142 149 154 161 165 167 165 159 158 160 161 161 163 165 163 162 158 159 154 158 170 176 175 178 176 175 174 174 169 173 185 200 203 199 195 196 190 171 167
90 70 55 104 113 139 113 92 137 153 148 153 162 167 169 171 166 168 169 166 164 162 161 161 163 162 159 160 161 161 170 173 176 181 179 179 175 170 169 167 182 203 204 194 179 179 143 141 152
44 64 43 271 134 157 118 148 170 159 153 159 166 171 173 176 175 174 169 165 163 159 160 165 167 165 163 161 162 158 166 171 178 180 182 186 181 172 166 167 192 196 182 168 157 158 126 138 163
19 55 250 272 208 160 129 157 168 163 159 166 172 172 172 176 178 178 171 167 165 164 163 165 162 165 165 160 155 156 160 166 174 176 179 183 180 174 170 174 189 183 167 164 181 157 152 166 209
268 263 265 236 228 141 144 161 161 167 168 176 175 171 173 180 185 181 173 167 165 163 161 161 161 167 161 150 135 131 143 170 173 171 180 182 182 179 173 177 179 171 155 169 165 167 171 187 205
223 241 248 245 194 128 149 159 171 175 179 180 178 174 177 188 185 176 172 164 162 162 161 162 162 170 162 157 157 157 173 185 185 187 189 186 186 182 175 173 172 169 175 190 179 165 171 210 168
244 279 274 289 124 127 139 162 180 178 188 186 182 180 184 185 176 175 173 168 170 171 169 167 169 172 174 175 168 165 166 188 190 192 190 194 189 187 183 174 180 181 177 187 185 166 169 213 169
270 216 225 201 30 61 101 19 214 214 191 182 187 185 185 184 180 181 179 177 172 175 176 177 176 173 175 169 150 140 121 107 126 173 187 200 185 181 176 175 174 184 181 194 199 185 177 200 220
265 244 194 147 98 257 130 185 261 229 197 193 193 189 192 185 180 183 182 178 179 181 177 174 174 173 174 167 166 165 172 184 202 190 190 201 191 189 183 180 180 185 189 193 203 192 188 182 212
223 230 159 145 128 32 23 122 279 176 197 212 201 193 193 186 181 184 184 182 180 177 175 173 172 175 177 176 177 174 180 191 188 171 179 196 205 199 190 184 183 188 198 200 206 200 191 190 200
189 51 32 47 69 13 260 145 255 217 204 202 201 194 183 179 179 179 175 164 167 168 168 168 170 179 180 177 178 179 181 181 175 177 180 189 197 207 204 191 192 201 207 207 206 205 200 209 205
90 85 31 1 11 258 272 155 240 241 206 193 191 188 173 168 169 167 164 163 167 170 170 170 171 180 181 180 185 189 188 184 185 185 183 180 182 195 212 202 197 206 212 209 202 205 214 210 208
176 135 154 191 219 277 329 232 257 251 197 184 171 166 161 162 169 172 172 170 172 175 174 173 177 182 183 185 190 191 187 188 192 189 183 185 195 204 204 195 191 203 208 211 207 214 222 219 220
162 166 167 144 173 274 295 302 324 26 77 106 137 148 161 168 174 175 173 172 172 174 178 176 178 182 185 188 187 190 190 187 184 181 180 184 192 191 180 183 185 194 197 207 202 224 235 227 224
166 155 99 118 152 246 292 278 239 224 187 153 151 158 168 176 175 175 175 175 175 176 178 176 180 183 186 187 189 191 190 189 183 178 183 184 179 172 159 169 173 176 196 204 187 222 227 201 233
188 123 116 127 152 158 223 266 229 193 175 170 183 181 169 177 177 175 175 175 172 171 175 177 180 181 184 186 184 178 178 179 176 176 182 175 165 155 154 162 147 125 120 151 154 187 163 178 244
181 177 148 155 212 167 167 257 258 190 169 160 171 184 177 176 175 173 168 166 168 170 173 176 177 178 180 176 167 167 166 163 165 173 176 164 159 163 160 141 134 138 132 200 183 203 185 189 239
Height
1504 1504 1504 1506 1510 1521 1524 1518 1513 1513 1515 1516 1515 1516 1520 1525 1531 1541 1539 1540 1541 1541 1542 1542 1543 1543 1543 1543 1544 1544 1544 1545 1545 1545 1546 1546 1547 1547 1547 1548 1548 1549 1549 1550 1551 1552 1553 1554 1555
1504 1504 1506 1507 1518 1536 1530 1517 1515 1515 1517 1517 1519 1521 1523 1529 1532 1536 1538 1541 1542 1542 1543 1544 1544 1544 1545 1545 1546 1546 1546 1547 1547 1547 1548 1548 1549 1549 1550 1550 1551 1551 1552 1553 1554 1555 1556 1557 1558
1505 1505 1507 1511 1523 1530 1528 1518 1516 1517 1517 1516 1520 1524 1527 1532 1535 1537 1539 1541 1543 1543 1544 1545 1546 1546 1546 1547 1547 1548 1548 1548 1549 1549 1550 1550 1551 1551 1552 1552 1553 1554 1555 1555 1556 1557 1558 1559 1560
1505 1507 1509 1517 1524 1516 1515 1515 1515 1517 1519 1520 1521 1527 1532 1535 1536 1538 1541 1543 1544 1544 1545 1546 1547 1547 1548 1549 1549 1549 1550 1550 1551 1551 1552 1552 1553 1553 1554 1555 1555 1556 1557 1558 1559 1560 1561 1562 1563
1505 1507 1516 1525 1522 1514 1512 1514 1514 1517 1520 1523 1523 1530 1535 1537 1538 1540 1542 1544 1545 1545 1546 1547 1548 1549 1549 1550 1550 1551 1551 1552 1552 1553 1553 1554 1555 1555 1556 1557 1557 1558 1559 1560 1561 1562 1563 1564 1565
1506 1509 1527 1533 1524 1515 1513 1514 1515 1520 1524 1526 1527 1531 1538 1539 1539 1542 1544 1545 1546 1546 1548 1549 1550 1550 1551 1551 1552 1552 1553 1553 1554 1554 1555 1556 1556 1557 1558 1558 1559 1560 1561 1562 1563 1564 1565 1566 1567
1507 1514 1526 1527 1524 1519 1516 1515 1515 1521 1525 1527 1528 1532 1539 1541 1542 1543 1545 1547 1548 1548 1549 1550 1551 1552 1552 1553 1553 1554 1554 1555 1555 1556 1557 1557 1558 1559 1559 1560 1561 1562 1563 1564 1565 1566 1567 1568 1569
1505 1512 1522 1524 1523 1520 1515 1515 1517 1519 1524 1528 1529 1532 1538 1541 1543 1545 1547 1548 1549 1550 1550 1551 1552 1553 1553 1554 1555 1555 1556 1556 1557 1557 1558 1559 1560 1560 1561 1562 1563 1564 1565 1566 1567 1568 1569 1570 1571
1505 1517 1526 1522 1520 1518 1514 1515 1519 1520 1523 1527 1528 1530 1535 1540 1543 1545 1547 1549 1550 1551 1552 1552 1553 1554 1555 1555 1556 1557 1557 1558 1558 1559 1559 1560 1561 1562 1563 1563 1564 1565 1566 1567 1568 1569 1570 1571 1572
1503 1518 1518 1510 1509 1512 1514 1514 1518 1523 1525 1528 1531 1535 1538 1541 1543 1544 1546 1548 1550 1551 1552 1553 1554 1555 1556 1556 1557 1558 1559 1559 1560 1560 1561 1561 1562 1563 1564 1565 1566 1567 1568 1569 1570 1571 1572 1573 1574
1501 1509 1507 1507 1507 1509 1513 1515 1518 1522 1527 1528 1530 1534 1539 1541 1543 1545 1546 1548 1549 1551 1552 1554 1555 1556 1556 1557 1558 1559 1560 1560 1561 1561 1562 1563 1563 1564 1565 1566 1567 1568 1569 1570 1571 1572 1573 1574 1574
1501 1502 1503 1505 1506 1509 1511 1515 1519 1521 1525 1527 1529 1533 1537 1540 1542 1544 1545 1547 1549 1550 1552 1553 1555 1556 1557 1558 1559 1559 1560 1561 1561 1562 1562 1563 1564 1565 1566 1566 1567 1568 1569 1570 1571 1572 1573 1574 1575
1502 1503 1504 1505 1506 1507 1510 1514 1517 1522 1525 1529 1531 1534 1537 1539 1542 1544 1546 1547 1549 1550 1552 1553 1555 1556 1557 1558 1559 1560 1561 1561 1562 1562 1563 1564 1564 1565 1566 1567 1568 1569 1570 1571 1572 1573 1573 1574 1575
1503 1503 1504 1505 1507 1509 1511 1516 1518 1524 1526 1530 1533 1535 1536 1538 1541 1543 1545 1547 1548 1549 1551 1552 1554 1555 1557 1558 1558 1559 1560 1561 1562 1563 1563 1564 1564 1565 1566 1567 1568 1569 1570 1571 1572 1572 1573 1574 1575
1503 1506 1507 1507 1507 1511 1513 1522 1521 1522 1525 1529 1532 1534 1536 1537 1540 1541 1543 1545 1546 1548 1550 1552 1553 1555 1556 1557 1558 1559 1560 1561 1561 1562 1563 1564 1564 1565 1566 1567 1568 1569 1570 1570 1571 1572 1573 1574 1574
1505 1512 1519 1510 1508 1511 1516 1530 1522 1522 1525 1529 1532 1534 1536 1537 1539 1540 1542 1544 1546 1547 1549 1551 1553 1554 1555 1557 1558 1558 1559 1560 1561 1562 1562 1563 1564 1565 1566 1566 1567 1568 1569 1570 1570 1571 1572 1572 1573
1516 1524 1522 1514 1506 1509 1515 1525 1522 1522 1524 1527 1529 1532 1534 1537 1538 1540 1541 1542 1544 1546 1548 1550 1552 1553 1554 1556 1557 1558 1558 1559 1560 1561 1562 1563 1563 1564 1565 1565 1566 1567 1568 1569 1569 1570 1570 1571 1571
1527 1524 1520 1517 1507 1508 1515 1520 1519 1521 1523 1524 1527 1529 1532 1534 1535 1537 1540 1541 1544 1545 1547 1549 1550 1552 1553 1555 1556 1557 1557 1558 1559 1560 1561 1562 1562 1563 1564 1564 1565 1566 1566 1567 1568 1568 1569 1569 1570
1514 1517 1519 1512 1503 1509 1515 1518 1517 1518 1520 1522 1525 1527 1529 1531 1534 1536 1539 1540 1543 1544 1546 1547 1549 1550 1552 1553 1554 1555 1556 1557 1558 1559 1560 1561 1561 1562 1562 1563 1564 1564 1565 1565 1566 1566 1567 1567 1568
1510 1516 1516 1509 1503 1509 1516 1518 1515 1516 1517 1518 1521 1524 1527 1529 1532 1534 1536 1539 1540 1542 1544 1546 1547 1549 1550 1552 1553 1554 1555 1556 1557 1558 1558 1559 1560 1560 1561 1562 1562 1563 1563 1564 1564 1564 1565 1565 1566
1510 1513 1513 1513 1509 1510 1517 1527 1521 1516 1516 1517 1519 1520 1523 1525 1528 1531 1534 1536 1538 1540 1542 1544 1545 1547 1549 1550 1552 1553 1554 1554 1555 1556 1556 1557 1558 1559 1559 1560 1561 1561 1562 1562 1562 1562 1562 1563 1564
1514 1501 1503 1508 1520 1529 1523 1544 1527 1520 1519 1517 1518 1519 1521 1523 1526 1529 1531 1534 1536 1538 1541 1543 1544 1546 1547 1549 1550 1551 1551 1552 1553 1554 1555 1556 1557 1557 1558 1558 1559 1559 1559 1560 1560 1560 1560 1561 1561
1502 1495 1500 1506 1518 1528 1526 1538 1533 1522 1522 1517 1515 1516 1518 1520 1523 1526 1529 1531 1534 1537 1539 1541 1543 1545 1546 1547 1548 1549 1550 1551 1552 1552 1553 1554 1555 1555 1556 1556 1557 1557 1557 1557 1558 1558 1558 1558 1558
1493 1499 1507 1517 1528 1543 1530 1536 1537 1524 1516 1512 1512 1513 1515 1518 1522 1525 1528 1531 1534 1536 1538 1540 1541 1542 1544 1545 1546 1547 1548 1549 1550 1550 1551 1552 1553 1553 1554 1555 1555 1555 1555 1555 1555 1555 1555 1555 1556
1496 1520 1542 1545 1554 1548 1528 1531 1531 1509 1504 1504 1506 1509 1512 1515 1519 1522 1525 1529 1532 1534 1536 1538 1539 1541 1542 1543 1544 1546 1547 1547 1548 1549 1549 1550 1551 1551 1552 1553 1553 1553 1553 1553 1553 1553 1553 1553 1553
1500 1516 1544 1555 1557 1548 1531 1532 1519 1501 1499 1501 1503 1506 1511 1514 1517 1520 1523 1525 1529 1531 1534 1535 1537 1538 1540 1541 1542 1543 1545 1546 1547 1547 1548 1549 1549 1550 1550 1551 1551 1551 1550 1550 1550 1550 1550 1550 1550
1499 1510 1515 1536 1541 1548 1540 1526 1512 1501 1501 1502 1504 1507 1509 1512 1515 1518 1521 1524 1526 1529 1531 1533 1535 1536 1537 1538 1539 1541 1542 1544 1545 1546 1546 1547 1548 1548 1548 1549 1549 1549 1548 1548 1547 1547 1547 1546 1546
1489 1498 1520 1535 1551 1557 1544 1534 1528 1512 1507 1504 1505 1506 1509 1512 1514 1517 1519 1522 1524 1527 1529 1531 1533 1534 1535 1536 1537 1538 1540 1541 1543 1544 1544 1545 1546 1546 1546 1547 1547 1546 1546 1545 1544 1544 1543 1543 1543
1494 1500 1514 1531 1537 1552 1554 1542 1510 1507 1503 1503 1504 1506 1507 1509 1512 1515 1517 1520 1522 1525 1527 1529 1531 1532 1532 1533 1535 1536 1537 1539 1540 1541 1542 1543 1544 1544 1545 1545 1545 1544 1543 1542 1542 1541 1540 1540 1540
1487 1495 1510 1528 1533 1538 1545 1537 1501 1499 1498 1499 1502 1504 1505 1507 1510 1512 1516 1519 1521 1523 1525 1527 1528 1529 1530 1532 1533 1534 1536 1537 1538 1539 1540 1541 1542 1543 1543 1543 1543 1542 1541 1540 1539 1538 1537 1537 1537